METEOSAT-8 (MSG-1)

Last updated on Jan. 16, 2020, 4:32 a.m. UTC

1 27509U 02040B   20015.80172553  .00000133  00000-0  00000+0 0  9994
2 27509   6.4576  54.7503 0001133 225.6533 164.4351  1.00266100 63741
UTC
Height (km)
Latitude
Longitude
Inclination
Orbital Period
UTC large
Height (km)
Speed (km/s)
/
Latitude / Longitude
Inclination (degrees)
Orbital Period (minutes)
Azimuth
Elevation
Range (km)
Doppler Factor
iOS Compass Heading
iOS Angle

Next 30 passes for location: Hong Kong

Rise time Rise Azimuth (degrees) Set time Set Azimuth (degrees) Duration Max altitude (degrees)

No matching passes for this satellites